Simultaneous Nadir Overpasses (SNOs) Predictions

Prediction of SNOs between METOP-C and LANDSAT-8 Satellite Orbit:

Table of predicted SNOs for the next 14.0 days since TLE Epoch: 10/21/2023
Index Date (METOP-C) Time (METOP-C) Lat,Lon (METOP-C) SZA (METOP-C ) Date (LANDSAT-8) Time (LANDSAT-8) Lat,Lon (LANDSAT-8) SZA (LANDSAT-8 ) Distance(km) Time Diff (sec)
1 10/21/2023 22:39:11 -81.12, 59.83 85.68 10/21/2023 22:40:05 -81.12, 59.91 85.64 1.66 54
2 10/21/2023 23:29:50 81.13,-132.48 94.39 10/21/2023 23:29:31 81.13,-132.36 94.39 2.04 19
3 10/24/2023 18:13:33 -81.12, 126.26 84.68 10/24/2023 18:14:21 -81.12, 126.31 84.65 1.11 48
4 10/24/2023 19:04:12 81.13, -66.11 95.37 10/24/2023 19:03:47 81.12, -65.99 95.37 2.10 25
5 10/27/2023 13:47:55 -81.13,-167.04 83.68 10/27/2023 13:48:37 -81.12,-167.22 83.68 3.14 42
6 10/27/2023 14:38:33 81.15, 0.92 96.42 10/27/2023 14:38:02 81.15, 0.81 96.40 1.84 31
7 10/30/2023 09:22:18 -81.12,-100.82 82.76 10/30/2023 09:22:52 -81.13,-100.70 82.73 2.22 34
8 10/30/2023 10:12:55 81.15, 67.47 97.38 10/30/2023 10:12:17 81.15, 67.31 97.34 2.81 38
9 11/02/2023 04:56:39 -81.12, -34.32 81.85 11/02/2023 04:57:06 -81.11, -34.48 81.86 2.87 27



Historial Predications of SNOs between METOP-C and LANDSAT-8
